Location: Newark
(44.2003°N, 3.2583°E)
Time: 01:30:59
(UTC+00:00)

Explorer 7 - Pass Details

Date: 29 October 2019
Orbit: 485 x 680 km, 50.3° (Epoch: 12 November)

Event Time Altitude Azimuth Distance (km) Brightness Sun altitude
Rises 10:43:31 0° 287° (WNW) 2,568 10.0 31.4°
Reaches altitude 10° 10:45:53 10° 297° (WNW) 1,675 9.0 31.5°
Maximum altitude 10:49:17 31° 2° (N) 868 7.6 31.6°
Drops below altitude 10° 10:52:41 10° 67° (ENE) 1,673 9.3 31.7°
Sets 10:55:02 0° 78° (ENE) 2,565 10.2 31.8°
